614  
ASUS44 KSHV 151610  
RWRSHV  
 
WEATHER ROUNDUP FOR THE FOUR STATE AREA  
NATIONAL WEATHER SERVICE SHREVEPORT LA  
1100 AM CDT SUN SEP 15 2019  
 
NOTE: "FAIR" INDICATES FEW OR NO CLOUDS BELOW 12000 FEET  
WITH NO SIGNIFICANT WEATHER AND/OR S TO VISIBILITY
.  
 
!LAZ001-LAZ014-TXZ097-151700  
SHREVEPORT...MONROE...TEXARKANA RADIOS  
 
CITY SKY/WX TMP DP RH WIND PRES REMARKS
 
SHREVEPORT SUNNY 91 67 44 VRB5 30.09S  
MONROE N/A 91 72 53 NE5 30.10F HX 98  
NATCHITOCHES N/A 91 70 49 NE5 30.08F  
TEXARKANA SUNNY 90 65 43 CALM 30.12R  

 
 
!LAZ001-LAZ014-TXZ097-151700  
OTHER LOCATIONS...  
 
CITY SKY/WX TMP DP RH WIND PRES REMARKS
 
DOWNTOWN SHV SUNNY 90 67 46 NE3 30.09S  
BOSSIER CITY N/A 90 67 46 E3 30.09S  
RUSTON N/A 89 69 51 CALM 30.14S  
LITTLE ROCK MOSUNNY 85 70 60 SE6 30.14F  
EL DORADO NOT AVBL  
JACKSON N/A 88 68 51 E5 30.10F  
NEW ORLEANS PTSUNNY 86 75 69 E12 30.03S  
HOUSTON MOSUNNY 91 69 48 NE9 30.05S  
LUFKIN SUNNY 90 68 48 E7 30.08S  
TYLER SUNNY 91 61 36 SE7 30.10S  
DAL FT WORTH MOSUNNY 89 66 46 E6 30.09R  

 
 
!TXZ136-TXZ165-151700  
TYLER...LUFKIN RADIOS  
 
CITY SKY/WX TMP DP RH WIND PRES REMARKS
 
TYLER SUNNY 91 61 36 SE7 30.10S  
GILMER SUNNY 90 64 42 E3 30.11S  
LONGVIEW SUNNY 92 68 45 NE6 30.09S  
LUFKIN SUNNY 90 68 48 E7 30.08S  

 
 
!TXZ136-TXZ165-151700  
OTHER LOCATIONS...  
 
CITY SKY/WX TMP DP RH WIND PRES REMARKS
 
NACOGDOCHES N/A N/A N/A N/A MISG N/A  
BEAUMONT N/A 90 72 55 NE10 30.03S  
HOUSTON MOSUNNY 91 69 48 NE9 30.05S  
COLLEGE STN SUNNY 88 71 57 NE8 30.08S  
AUSTIN MOSUNNY 88 68 51 NE7 30.08S  
DAL FT WORTH MOSUNNY 89 66 46 E6 30.09R  
TEXARKANA SUNNY 90 65 43 CALM 30.12R  
SHREVEPORT SUNNY 91 67 44 VRB5 30.09S  
FORT POLK N/A 89 67 49 NE7 30.05F  
LAKE CHARLES N/A 90 70 51 NE13 30.04F  

 
 
 
CLICK HERE TO GO TO PREVIOUS BULLETINS.

The Nexlab LA Page
The Nexlab TX Page
The Nexlab AR Page
The Nexlab OK Page Main Text Page